Voltar ao catálogo

CZ-6A DEB

AtivoSSO
NORAD 55210·DEBRIS·🇨🇳 China

Lançado Nov 11, 2022 de Taiyuan Satellite Launch Center

Loading…

Próximas Passagens (próximas 24 horas)

TLE

AtualizadoSource: Space-Track

Época: Sep 14, 2026, 13:06 UTC

1 55210U 22151WB  26257.54608082  .00003183  00000-0  10341-2 0  9995
2 55210  98.7464 293.3768 0038110  37.0070 323.3735 14.39145505194772

Acompanhe CZ-6A DEB em tempo real com AllMySat

Download on the App Store